Volver al catálogo

STARLINK-37964

ActivoComunicacionesVLEO
NORAD 69958·PAYLOAD·🇺🇸 United States

Lanzado Jul 9, 2026 desde Cape Canaveral Space Force Station

Loading…

Próximos Pases (próximas 24 horas)

TLE

ActualizadoSource: CelesTrak SupGP

Época: Sep 14, 2026, 21:36 UTC

1 69958C 26157R   26257.90048611 -.00005521  00000+0 -16319-3 0  2573
2 69958  53.1588   0.2332 0001045  81.4547 100.7549 15.34380587    19

Sigue STARLINK-37964 en tiempo real con AllMySat

Download on the App Store